Tacoma, WA

9:40 PM PST on February 24, 2017 (GMT -0800)
Gray Army Air Field

Weather History for KGRF - November, 2013

Change the Weather History Date:

Saturday, November 30, 2013

  Actual Average Record
Temperature  
Mean Temperature 47 °F -  
Max Temperature 51 °F 46 °F 57 °F (2012)
Min Temperature 43 °F 34 °F 16 °F (2014)
Degree Days  
Heating Degree Days 18    
Moisture  
Dew Point 45 °F    
Average Humidity 90    
Maximum Humidity 100    
Minimum Humidity 77    
Precipitation  
Precipitation 0.09 in - - ()
Sea Level Pressure  
Sea Level Pressure 30.28 in    
Wind  
Wind Speed 7 mph (South)    
Max Wind Speed 14 mph    
Max Gust Speed -    
Visibility 10 miles    
Events Rain    
Averages and records for this station are not official NWS values.
T = Trace of Precipitation, MM = Missing Value Source: NWS Daily Summary

Daily Weather History Graph

Daily Weather History Graph

Search for Another Location

Airport or City:

Trip Planner

Search our weather history database for the weather conditions in past years. The results will help you decide how hot, cold, wet, or windy it might be!

Date:

Astronomy

Nov. 30, 2013 Rise Set
Actual Time 7:34 AM PST 4:23 PM PST
Civil Twilight 7:00 AM PST 4:57 PM PST
Nautical Twilight 6:22 AM PST 5:36 PM PST
Astronomical Twilight 5:45 AM PST 6:12 PM PST
Moon 4:43 AM PST (11/30) 2:58 PM PST (11/30)
Length of Visible Light 9h 57m
Length of Day
8h 48m
Waning Crescent, 6% of the Moon is Illuminated
Nov 30
Waning Crescent
Dec 2
New
Dec 9
First Quarter
Dec 17
Full
Dec 25
Last Quarter

Hourly Weather History & Observations

Time (PST) Temp. Windchill Dew Point Humidity Pressure Visibility Wind Dir Wind Speed Gust Speed Precip Events Conditions
12:41 AM 46.4 °F 45.2 °F 42.8 °F 87% 30.33 in 10.0 mi SSW 3.5 mph - N/A   Light Drizzle
12:58 AM 45.9 °F 42.9 °F 43.9 °F 93% 30.35 in 10.0 mi SW 5.8 mph - 0.00 in Rain Light Rain
1:27 AM 44.6 °F 40.7 °F 44.6 °F 100% 30.34 in 10.0 mi South 6.9 mph - N/A   Overcast
1:58 AM 44.2 °F 40.3 °F 43.9 °F 99% 30.36 in 10.0 mi SSE 6.9 mph - 0.02 in   Overcast
2:58 AM 43.3 °F 40.7 °F 43.0 °F 99% 30.35 in 10.0 mi SE 4.6 mph - N/A   Overcast
3:58 AM 43.5 °F 40.1 °F 43.2 °F 99% 30.34 in 10.0 mi South 5.8 mph - N/A   Overcast
4:24 AM 44.6 °F 40.2 °F 44.6 °F 100% 30.32 in 10.0 mi South 8.1 mph - N/A Rain Light Rain
4:38 AM 44.6 °F 40.7 °F 44.6 °F 100% 30.32 in 10.0 mi South 6.9 mph - N/A   Overcast
4:46 AM 44.6 °F 40.2 °F 44.6 °F 100% 30.32 in 10.0 mi South 8.1 mph - N/A Rain Light Rain
4:58 AM 45.0 °F 41.2 °F 44.8 °F 99% 30.34 in 10.0 mi South 6.9 mph - 0.00 in   Light Drizzle
5:19 AM 44.6 °F 41.4 °F 44.6 °F 100% 30.32 in 10.0 mi SSW 5.8 mph - N/A   Overcast
5:28 AM 44.6 °F 40.2 °F 44.6 °F 100% 30.32 in 10.0 mi SSW 8.1 mph - N/A   Light Drizzle
5:41 AM 46.4 °F 42.9 °F 44.6 °F 93% 30.31 in 10.0 mi South 6.9 mph - N/A   Overcast
5:58 AM 45.9 °F 41.7 °F 44.6 °F 95% 30.33 in 10.0 mi SSW 8.1 mph - 0.00 in   Overcast
6:58 AM 45.7 °F 42.0 °F 44.6 °F 96% 30.33 in 10.0 mi South 6.9 mph - N/A   Overcast
7:58 AM 44.2 °F 41.8 °F 44.1 °F 99% 30.34 in 10.0 mi SSE 4.6 mph - N/A   Overcast
8:49 AM 46.4 °F 42.9 °F 44.6 °F 93% 30.31 in 10.0 mi SSE 6.9 mph - N/A Rain Light Rain
8:58 AM 45.9 °F 42.3 °F 45.5 °F 99% 30.33 in 10.0 mi South 6.9 mph - 0.00 in Rain Light Rain
8:59 AM 46.4 °F 43.5 °F 44.6 °F 93% 30.31 in 10.0 mi South 5.8 mph - N/A   Overcast
9:08 AM 46.4 °F 43.5 °F 44.6 °F 93% 30.32 in 10.0 mi SSW 5.8 mph - N/A Rain Rain
9:30 AM 48.2 °F - 42.8 °F 82% 30.32 in 10.0 mi South 5.8 mph - N/A   Overcast
9:35 AM 48.2 °F - 42.8 °F 82% 30.32 in 10.0 mi South 6.9 mph - N/A   Overcast
9:58 AM 48.4 °F - 43.3 °F 83% 30.34 in 10.0 mi South 8.1 mph - 0.00 in   Overcast
10:58 AM 49.3 °F - 42.8 °F 78% 30.34 in 10.0 mi South 11.5 mph - N/A   Overcast
11:58 AM 50.0 °F - 43.5 °F 78% 30.33 in 10.0 mi South 8.1 mph - N/A   Overcast
12:16 PM 50.0 °F - 44.6 °F 82% 30.30 in 10.0 mi South 6.9 mph - N/A   Light Drizzle
12:24 PM 50.0 °F - 44.6 °F 82% 30.30 in 10.0 mi South 6.9 mph - N/A   Overcast
12:58 PM 50.4 °F - 43.9 °F 78% 30.31 in 10.0 mi South 8.1 mph - 0.00 in   Overcast
1:58 PM 50.9 °F - 44.6 °F 79% 30.29 in 10.0 mi South 8.1 mph - N/A   Overcast
2:58 PM 51.1 °F - 44.2 °F 77% 30.29 in 10.0 mi South 11.5 mph - N/A   Overcast
3:48 PM 50.0 °F - 44.6 °F 82% 30.25 in 10.0 mi South 11.5 mph - N/A   Mostly Cloudy
3:58 PM 50.5 °F - 44.2 °F 79% 30.27 in 10.0 mi South 10.4 mph - N/A   Mostly Cloudy
4:58 PM 50.4 °F - 44.2 °F 80% 30.27 in 10.0 mi South 10.4 mph - N/A   Scattered Clouds
5:18 PM 50.0 °F - 44.6 °F 82% 30.25 in 10.0 mi South 10.4 mph - N/A   Mostly Cloudy
5:58 PM 50.7 °F - 44.2 °F 78% 30.26 in 10.0 mi South 6.9 mph - N/A   Overcast
6:58 PM 50.9 °F - 45.3 °F 81% 30.23 in 10.0 mi South 9.2 mph - N/A   Overcast
7:58 PM 50.9 °F - 46.0 °F 83% 30.22 in 10.0 mi South 8.1 mph - N/A   Overcast
8:58 PM 50.9 °F - 46.2 °F 84% 30.20 in 10.0 mi South 9.2 mph - N/A   Overcast
9:38 PM 50.0 °F - 48.2 °F 94% 30.17 in 10.0 mi South 12.7 mph - N/A   Light Drizzle
9:53 PM 50.0 °F - 48.2 °F 94% 30.16 in 10.0 mi SSE 12.7 mph - N/A Rain Light Rain
9:58 PM 49.8 °F - 48.0 °F 94% 30.18 in 10.0 mi South 12.7 mph - 0.01 in Rain Light Rain
10:03 PM 50.0 °F - 48.2 °F 94% 30.16 in 10.0 mi SSE 12.7 mph - N/A   Overcast
10:13 PM 50.0 °F - 48.2 °F 94% 30.16 in 10.0 mi South 13.8 mph - N/A Rain Light Rain
10:58 PM 48.9 °F - 48.7 °F 99% 30.16 in 10.0 mi South 12.7 mph - 0.03 in   Light Drizzle
11:58 PM 48.9 °F - 48.7 °F 99% 30.13 in 10.0 mi South 11.5 mph - 0.03 in Rain Light Rain